Tiempo atmosférico en la estación meteorológica de Belorado, Burgos (875 m.)



Fecha
DESCASC
Temp. máxima en grados centígrados (hora)
DESCASC
Temp. mínima en grados centígrados (hora)
DESCASC
Temp. media en grados centígrados
DESCASC
Racha de viento máxima en m/sg (hora)
DESCASC
Velocidad máxima media en intervalos de 10 minutos(hora)
DESCASC
Precipitaciones diarias en mm
DESCASC
Precipitaciones de 00:00 a 06:00 en mm
DESCASC
Precipitaciones de 06:00 a 12:00 en mm
DESCASC
Precipitaciones de 12:00 a 18:00 en mm
DESCASC
Precipitaciones de 18:00 a 24:00 en mm
DESCASC
22-01-2020 3.9 (15:20) 0.9 (00:00) 2.4 -- (--) -- (--) 1.1 1.1 0 0 0
21-01-2020 1 (23:10) -0.2 (02:20) 0.4 -- (--) -- (--) 12.1 0 1.5 10.5 0.1
20-01-2020 0.7 (14:30) -1.1 (09:20) -0.2 -- (--) -- (--) 0 0 0 0 0
19-01-2020 4.2 (02:30) 0.2 (23:59) 2.2 -- (--) -- (--) 1.3 0.4 0.8 0.1 0
18-01-2020 11.2 (14:30) 0.4 (00:10) 5.8 -- (--) -- (--) 6.2 0 0 0.6 5.6
17-01-2020 10.2 (14:40) 0.6 (23:50) 5.4 -- (--) -- (--) 0.1 0 0.1 0 0
16-01-2020 14.4 (14:00) 2.6 (09:30) 8.5 -- (--) -- (--) 0.1 0 0 0 0.1

Gráficas

Temp. máximas Temp. mínimas Temp. medias Precipitaciones Rachas de viento máximas Velocidades máximas media en intervalos de 10 minutos

Datos horarios

Fecha y hora oficial Temperatura (ºC) Velocidad del viento (km/h) Dirección del viento Racha (km/h) Dirección de racha Precipitación (mm) Presión (hPa) Tendencia (hPa) Humedad (%)
2020-01-25 23:00:00 4.4 -- -- -- -- 0 -- -- 96
2020-01-25 22:00:00 4.8 -- -- -- -- 0.1 -- -- 96
2020-01-25 21:00:00 5.3 -- -- -- -- 0 -- -- 96
2020-01-25 20:00:00 5.3 -- -- -- -- 0 -- -- 97
2020-01-25 19:00:00 5.5 -- -- -- -- 0.5 -- -- 97
2020-01-25 18:00:00 5.5 -- -- -- -- 0.1 -- -- 95
2020-01-25 17:00:00 5.3 -- -- -- -- 0 -- -- 94
2020-01-25 16:00:00 6 -- -- -- -- 0 -- -- 89
2020-01-25 15:00:00 6 -- -- -- -- 0 -- -- 89
2020-01-25 14:00:00 5.1 -- -- -- -- 0.1 -- -- 92
2020-01-25 13:00:00 4.1 -- -- -- -- 0.1 -- -- 96
2020-01-25 12:00:00 3.4 -- -- -- -- 0 -- -- 99
2020-01-25 11:00:00 2.7 -- -- -- -- 0.1 -- -- 99
2020-01-25 10:00:00 2 -- -- -- -- 0 -- -- 99
2020-01-25 09:00:00 1.4 -- -- -- -- 0 -- -- 99
2020-01-25 08:00:00 1.6 -- -- -- -- 0 -- -- 99
2020-01-25 07:00:00 1.5 -- -- -- -- 0 -- -- 99
2020-01-25 06:00:00 2 -- -- -- -- 0 -- -- 99
2020-01-25 05:00:00 2.1 -- -- -- -- 0 -- -- 99
2020-01-25 04:00:00 1.9 -- -- -- -- 0 -- -- 96
2020-01-25 03:00:00 2.2 -- -- -- -- 0 -- -- 96
2020-01-25 02:00:00 2.9 -- -- -- -- 0 -- -- 96
2020-01-25 01:00:00 3.4 -- -- -- -- 0 -- -- 96
2020-01-25 00:00:00 3.4 -- -- -- -- 0 -- -- 96
2020-01-24 23:00:00 3.5 -- -- -- -- 0 -- -- 96
2020-01-24 22:00:00 3.9 -- -- -- -- 0.1 -- -- 97
2020-01-24 21:00:00 3.9 -- -- -- -- 0 -- -- 97
2020-01-24 20:00:00 3.8 -- -- -- -- 0 -- -- 98
2020-01-24 19:00:00 3.7 -- -- -- -- 0 -- -- 97
2020-01-24 18:00:00 3.9 -- -- -- -- 0 -- -- 97
2020-01-24 17:00:00 4.2 -- -- -- -- 0 -- -- 95
2020-01-24 16:00:00 5 -- -- -- -- 0 -- -- 92
2020-01-24 15:00:00 4.4 -- -- -- -- 0 -- -- 90
2020-01-24 14:00:00 4.1 -- -- -- -- 0 -- -- 91
2020-01-24 13:00:00 3.3 -- -- -- -- 0 -- -- 93
2020-01-24 12:00:00 2.5 -- -- -- -- 0 -- -- 97
2020-01-24 11:00:00 1.8 -- -- -- -- 0 -- -- 99
2020-01-24 10:00:00 2.1 -- -- -- -- 0 -- -- 99
2020-01-24 09:00:00 1.6 -- -- -- -- 0 -- -- 99
2020-01-24 08:00:00 1.4 -- -- -- -- 0 -- -- 99
2020-01-24 07:00:00 1.6 -- -- -- -- 0 -- -- 99
2020-01-24 06:00:00 1.7 -- -- -- -- 0 -- -- 99
2020-01-24 05:00:00 1.8 -- -- -- -- 0 -- -- 99
2020-01-24 04:00:00 1.6 -- -- -- -- 0 -- -- 99
2020-01-24 03:00:00 2.2 -- -- -- -- 0 -- -- 98
2020-01-24 02:00:00 2.5 -- -- -- -- 0 -- -- 97
2020-01-24 01:00:00 2.6 -- -- -- -- 0 -- -- 96
2020-01-24 00:00:00 2.9 -- -- -- -- 0 -- -- 96
2020-01-23 23:00:00 2.9 -- -- -- -- 0 -- -- 94
2020-01-23 22:00:00 2.5 -- -- -- -- 0 -- -- 93
2020-01-23 21:00:00 2.7 -- -- -- -- 0 -- -- 93
2020-01-23 20:00:00 3.3 -- -- -- -- 0 -- -- 92
2020-01-23 19:00:00 3.3 -- -- -- -- 0 -- -- 93
2020-01-23 18:00:00 3.7 -- -- -- -- 0 -- -- 91
2020-01-23 17:00:00 4.6 -- -- -- -- 0 -- -- 89
2020-01-23 16:00:00 4.9 -- -- -- -- 0 -- -- 87
2020-01-23 15:00:00 4.4 -- -- -- -- 0 -- -- 89
2020-01-23 14:00:00 3.6 -- -- -- -- 0 -- -- 90
2020-01-23 13:00:00 2.5 -- -- -- -- 0 -- -- 92
2020-01-23 12:00:00 2 -- -- -- -- 0 -- -- 92
2020-01-23 11:00:00 1.2 -- -- -- -- 0 -- -- 92
2020-01-23 10:00:00 0.9 -- -- -- -- 0 -- -- 94
2020-01-23 09:00:00 1.6 -- -- -- -- 0 -- -- 98
2020-01-23 08:00:00 1.4 -- -- -- -- 0 -- -- 98
2020-01-23 07:00:00 1.3 -- -- -- -- 0 -- -- 98
2020-01-23 06:00:00 0.9 -- -- -- -- 0 -- -- 98
2020-01-23 05:00:00 0.8 -- -- -- -- 0 -- -- 99
2020-01-23 04:00:00 1 -- -- -- -- 0 -- -- 98
2020-01-23 03:00:00 1.2 -- -- -- -- 0 -- -- 96
2020-01-23 02:00:00 1.9 -- -- -- -- 0 -- -- 97
2020-01-23 01:00:00 2.3 -- -- -- -- 0 -- -- 96
2020-01-23 00:00:00 2 -- -- -- -- 0 -- -- 95
2020-01-22 23:00:00 2.2 -- -- -- -- 0 -- -- 95
2020-01-22 22:00:00 2.2 -- -- -- -- 0 -- -- 95
2020-01-22 21:00:00 2.1 -- -- -- -- 0 -- -- 95
2020-01-22 20:00:00 2.3 -- -- -- -- 0 -- -- 94
2020-01-22 19:00:00 2.6 -- -- -- -- 0 -- -- 93
2020-01-22 18:00:00 2.5 -- -- -- -- 0 -- -- 93
2020-01-22 17:00:00 2.9 -- -- -- -- 0 -- -- 91
2020-01-22 16:00:00 3 -- -- -- -- 0 -- -- 90
2020-01-22 15:00:00 3.5 -- -- -- -- 0 -- -- 96
2020-01-22 14:00:00 3 -- -- -- -- 0 -- -- 96
2020-01-22 13:00:00 2.9 -- -- -- -- 0 -- -- 97
2020-01-22 12:00:00 2.2 -- -- -- -- 0 -- -- 99
2020-01-22 11:00:00 2 -- -- -- -- 0 -- -- 99
2020-01-22 10:00:00 1.6 -- -- -- -- 0 -- -- 99
2020-01-22 09:00:00 1.2 -- -- -- -- 0 -- -- 99
2020-01-22 08:00:00 1.2 -- -- -- -- 0 -- -- 99
2020-01-22 07:00:00 1.1 -- -- -- -- 0 -- -- 99
2020-01-22 06:00:00 1.1 -- -- -- -- 0.1 -- -- 99
2020-01-22 05:00:00 1 -- -- -- -- 0.8 -- -- 99
2020-01-22 04:00:00 1.4 -- -- -- -- 0.2 -- -- 99
2020-01-22 03:00:00 1.3 -- -- -- -- 0 -- -- 99
2020-01-22 02:00:00 1.2 -- -- -- -- 0 -- -- 99
2020-01-22 01:00:00 1.1 -- -- -- -- 0 -- -- 99
2020-01-22 00:00:00 0.9 -- -- -- -- 0 -- -- 99
2020-01-21 23:00:00 0.9 -- -- -- -- 0 -- -- 99
2020-01-21 22:00:00 0.6 -- -- -- -- 0 -- -- 99
2020-01-21 21:00:00 0.5 -- -- -- -- 0 -- -- 99
2020-01-21 20:00:00 0.3 -- -- -- -- 0 -- -- 99
2020-01-21 19:00:00 0.3 -- -- -- -- 0.1 -- -- 99
2020-01-21 18:00:00 0.2 -- -- -- -- 0.6 -- -- 99
2020-01-21 17:00:00 0.2 -- -- -- -- 0.5 -- -- 99
2020-01-21 16:00:00 0.4 -- -- -- -- 4.2 -- -- 99
2020-01-21 15:00:00 0.3 -- -- -- -- 2.7 -- -- 99
2020-01-21 14:00:00 0.2 -- -- -- -- 1.7 -- -- 98
2020-01-21 13:00:00 0.8 -- -- -- -- 0.8 -- -- 97
2020-01-21 12:00:00 0.7 -- -- -- -- 0.4 -- -- 96
2020-01-21 11:00:00 0.6 -- -- -- -- 0.8 -- -- 96
2020-01-16 11:00:00 5 -- -- -- -- 0 -- -- 94
2020-01-16 10:00:00 3.7 -- -- -- -- 0 -- -- 93
2020-01-16 09:00:00 10 -- -- -- -- 0 -- -- 69
2020-01-16 08:00:00 9.1 -- -- -- -- 0 -- -- 75
2020-01-16 07:00:00 6 -- -- -- -- 0 -- -- 88
2020-01-16 06:00:00 4 -- -- -- -- 0 -- -- 86
2020-01-16 05:00:00 6.9 -- -- -- -- 0 -- -- 78
2020-01-16 04:00:00 7.7 -- -- -- -- 0 -- -- 82
2020-01-16 03:00:00 7.9 -- -- -- -- 0 -- -- 86
2020-01-16 02:00:00 4.1 -- -- -- -- 0 -- -- 86
2020-01-16 01:00:00 7 -- -- -- -- 0 -- -- 78
2020-01-16 00:00:00 8.2 -- -- -- -- 0 -- -- 73
2020-01-15 23:00:00 8.8 -- -- -- -- 0 -- -- 70
2020-01-15 22:00:00 6 -- -- -- -- 0 -- -- 74
2020-01-15 21:00:00 7 -- -- -- -- 0 -- -- 69
2020-01-15 20:00:00 8.7 -- -- -- -- 0 -- -- 66
2020-01-15 19:00:00 9.4 -- -- -- -- 0 -- -- 66
2020-01-15 18:00:00 10 -- -- -- -- 0 -- -- 65
2020-01-15 17:00:00 10.7 -- -- -- -- 0 -- -- 60
2020-01-15 16:00:00 11.7 -- -- -- -- 0 -- -- 57
2020-01-15 15:00:00 11.5 -- -- -- -- 0 -- -- 58
2020-01-15 14:00:00 11.4 -- -- -- -- 0 -- -- 58
2020-01-15 13:00:00 12.2 -- -- -- -- 0 -- -- 55
2020-01-15 12:00:00 10.7 -- -- -- -- 0 -- -- 58
2020-01-15 11:00:00 10.7 -- -- -- -- 0 -- -- 55
2020-01-15 10:00:00 9.8 -- -- -- -- 0 -- -- 56
2020-01-15 09:00:00 9.6 -- -- -- -- 0 -- -- 55
2020-01-15 08:00:00 9.3 -- -- -- -- 0 -- -- 54
2020-01-15 07:00:00 8.6 -- -- -- -- 0 -- -- 56
2020-01-15 06:00:00 8.3 -- -- -- -- 0 -- -- 59
2020-01-15 05:00:00 8.7 -- -- -- -- 0 -- -- 61
2020-01-15 04:00:00 8.7 -- -- -- -- 0 -- -- 65
2020-01-15 03:00:00 8.6 -- -- -- -- 0 -- -- 66
2020-01-15 02:00:00 8.2 -- -- -- -- 0 -- -- 67